User: anonymous   Login
Location: Unspecified
(49.2170°N, 0.0000°E)
Time: 22:30:32
(UTC+00:00)
Language:

Tiros 1 despin weight - Orbit

View from above orbital plane
View from above orbital plane
View from above satellite
View from above satellite

Ground track
Ground track

The orbit data is extracted from the following two-line orbital elements,

1   115U 60002D   21019.10238364  .00000057  00000-0  33835-4 0  9993
2   115  48.1674 317.1915 0033678 119.4058 241.0223 14.83683975244997
Epoch (UTC): 19 January 2021 02:27:25
Eccentricity: 0.0033678
inclination: 48.1674°
perigee height: 594 km
apogee height: 641 km
right ascension of ascending node: 317.1915°
argument of perigee: 119.4058°
revolutions per day: 14.83683975
mean anomaly at epoch: 241.0223°
orbit number at epoch: 24499

The dashed part of the orbit path shows where the satellite is in the earth's shadow,  

DLR